User: anonymous   Login
Location: Unspecified
(0.0000°N, 0.0000°E)
Time: 16:22:32
(UTC+00:00)
Language:

Hubble Space Telescope - Orbit

View from above orbital plane
View from above orbital plane
View from above satellite
View from above satellite

Ground track
Ground track

The orbit data is extracted from the following two-line orbital elements,

1 20580U 90037B   17080.63782633 +.00000610 +00000-0 +26707-4 0  9991
2 20580 028.4693 226.0044 0002611 315.3382 150.1740 15.08706251276965
Epoch (UTC): 21 March 2017 15:18:28
Eccentricity: 0.0002611
inclination: 28.4693°
perigee height: 538 km
apogee height: 542 km
right ascension of ascending node: 226.0044°
argument of perigee: 315.3382°
revolutions per day: 15.08706251
mean anomaly at epoch: 150.1740°
orbit number at epoch: 27696

The dashed part of the orbit path shows where the satellite is in the earth's shadow,  

DLR